STARLINK-35862, 66628

Orbit data source: Space-Track

STARLINK-35862, 66628 is a payload satellite owned by SpaceX/Seattle (US) in LEO that was launched on Sun, 23 Nov 2025 UTC via an FALCON 9 launch vehicle from the Air Force Western Test Range (AFWTR). Payload-class satellites include a variety of spacecraft equipped with specific instruments for various scientific and technological missions. These include communications satellites like Starlink; space stations such as the ISS; scientific satellites like the Hubble; Earth observation satellites from companies like Planet Labs, Umbra, and HawkEye 360; GPS; miniature CubeSats for education and research; and military/defense satellites.

Loading next visibility...
Identifier
66628, 2025-271M
Orbit
LEO
Country
Flag of USUS
Related business
Manufacturer
SpaceX/Seattle
Mission
Operational Commercial Communications
Bus & Motor
STARLINK V2MO, Unknown motor
Mass
575 kg wet, ~530 kg dry
Launch date (UTC)
2025-11-23 (10 months ago)
Launch vehicle
FALCON 9
Launch site
Air Force Western Test Range (AFWTR)
Object type
Payload
Rocket body
Debris
Shape & HBR
Box + 1 Pan, 17.7 m
Radar Cross Section
41.120 m², Large (>1 m²)

Expand to show TLE details & history
Last TLE update: 15 hours ago

TLE from 15 hours ago
0 STARLINK-35862
1 66628U 25271M   26265.38900287  .00017606  00000-0  53094-3 0  9997
2 66628  53.1606 301.2195 0000696  72.0021 288.1058 15.34401493 47754
Epoch: 2026-09-22T09:20Z
TLE epoch observation values (Epoch: 2026-09-22T09:20:09.847Z)
Latitude
Longitude
159.92329°
Altitude
463.452 km
Speed
7.636 km/s
True Right ascension
20h 04m 52s
True Declination
0° 00' 00"
Sunlit
Object was in full shadow at epoch
Visualization orbit readout
Latitude
Unknown
Longitude
Unknown
Altitude
Unknown
Speed
Unknown
Apparent Right ascension
Unknown
Apparent Declination
Unknown
Sunlit
N/A
Visualization observer readout
Local Sidereal Time
17:12:36
Azimuth
Unknown
Elevation
Unknown
Doppler factor
Unknown
Orbital elements
Apogee altitude
463.432 km
Perigee altitude
462.479 km
Semi-major axis
6,841.093 km
Eccentricity
0.00007
Inclination
53.1606°
RAAN
301.2195°
Arg. of periapsis
72.0021°
True anomaly
288.09822°
Mean anomaly
288.1058°
Eccentric anomaly
288.10201°
Mean motion
3.83579 °/min
Orbital period
93.85 mins
BSTAR
0.00053094
Loading maneuver chart data...
Computing Atmospheric mass density...
Loading historical data...
Loading historical data...
Loading historical data...
Loading historical data...
Loading historical data...
Loading historical data...
Loading historical data...

Documentation

Showing up to 5 results
|